1998-067QA

Last updated on Wed Jun 19 2019 00:02:09 GMT+0000 (Coordinated Universal Time)

1 44303U 98067QA 19168.74492958 .00002490 00000-0 48975-4 0 9999 2 44303 51.6430 358.4911 0006557 56.3955 303.7659 15.51561513 2932
UTC large
Height (km)
Speed (km/s)
/
Latitude / Longitude
Inclination (degrees)
Orbital Period (minutes)
Azimuth
Elevation
Range (km)
Doppler Factor

Next 0 passes for location: London (51.5072 / 0.1276)

Sorry there are no passes over London.